TimeCST,TemperatureF,Dew PointF,Humidity,Sea Level PressureIn,VisibilityMPH,Wind Direction,Wind SpeedMPH,Gust SpeedMPH,PrecipitationIn,Events,Conditions,WindDirDegrees,DateUTC
12:53 AM,-2.0,-9.9,69,30.38,10.0,Calm,Calm,-,N/A,,Partly Cloudy,0,2013-01-22 06:53:00
1:06 AM,-2.2,-9.4,71,30.32,8.0,Calm,Calm,-,N/A,,Mostly Cloudy,0,2013-01-22 07:06:00
1:14 AM,-2.2,-9.4,71,30.32,10.0,Calm,Calm,-,N/A,,Scattered Clouds,0,2013-01-22 07:14:00
1:53 AM,-2.9,-11.0,68,30.40,10.0,WNW,5.8,-,N/A,,Clear,290,2013-01-22 07:53:00
2:53 AM,-2.9,-11.9,65,30.41,10.0,WNW,3.5,-,N/A,,Clear,300,2013-01-22 08:53:00
3:53 AM,-2.9,-11.9,65,30.40,10.0,West,3.5,-,N/A,,Clear,280,2013-01-22 09:53:00
4:53 AM,-5.1,-11.9,72,30.40,10.0,Calm,Calm,-,N/A,,Clear,0,2013-01-22 10:53:00
5:53 AM,-4.0,-11.0,72,30.40,10.0,Calm,Calm,-,N/A,,Clear,0,2013-01-22 11:53:00
6:53 AM,-7.1,-13.0,75,30.42,8.0,Calm,Calm,-,N/A,,Clear,0,2013-01-22 12:53:00
7:53 AM,-5.1,-11.0,76,30.43,10.0,SW,3.5,-,N/A,,Clear,220,2013-01-22 13:53:00
8:53 AM,-0.9,-8.0,72,30.44,10.0,SW,4.6,-,N/A,,Clear,220,2013-01-22 14:53:00
9:20 AM,-0.4,-9.4,66,30.38,8.0,Calm,Calm,-,N/A,,Mostly Cloudy,0,2013-01-22 15:20:00
9:53 AM,-0.0,-8.0,69,30.45,7.0,WNW,3.5,-,N/A,,Mostly Cloudy,290,2013-01-22 15:53:00
10:03 AM,1.4,-7.6,66,30.39,10.0,West,5.8,-,N/A,,Scattered Clouds,270,2013-01-22 16:03:00
10:53 AM,3.0,-7.1,63,30.46,10.0,Variable,4.6,-,0.00,,Mostly Cloudy,0,2013-01-22 16:53:00
11:01 AM,3.2,-7.6,61,30.40,10.0,WNW,8.1,-,N/A,,Partly Cloudy,290,2013-01-22 17:01:00
11:53 AM,7.0,-7.1,53,30.43,10.0,NW,6.9,-,0.00,,Clear,310,2013-01-22 17:53:00
12:53 PM,8.1,-7.1,50,30.41,10.0,West,11.5,-,0.00,,Clear,270,2013-01-22 18:53:00
1:53 PM,9.0,-7.1,48,30.41,10.0,West,9.2,-,0.00,,Clear,260,2013-01-22 19:53:00
2:53 PM,9.0,-7.1,48,30.41,10.0,West,10.4,-,0.00,,Clear,260,2013-01-22 20:53:00
3:53 PM,9.0,-7.1,48,30.40,10.0,WNW,6.9,-,0.00,,Clear,290,2013-01-22 21:53:00
4:53 PM,8.1,-7.1,50,30.40,10.0,WNW,4.6,-,N/A,,Clear,290,2013-01-22 22:53:00
5:53 PM,8.1,-6.0,53,30.39,10.0,Calm,Calm,-,N/A,,Clear,0,2013-01-22 23:53:00
6:53 PM,9.0,-5.1,53,30.39,10.0,West,3.5,-,N/A,,Clear,280,2013-01-23 00:53:00
7:53 PM,9.0,-4.0,56,30.38,10.0,WSW,4.6,-,N/A,,Mostly Cloudy,240,2013-01-23 01:53:00
8:53 PM,9.0,-7.1,48,30.38,10.0,Variable,6.9,-,N/A,,Mostly Cloudy,0,2013-01-23 02:53:00
9:53 PM,9.0,-5.1,53,30.38,10.0,SW,5.8,-,N/A,,Overcast,230,2013-01-23 03:53:00
10:53 PM,9.0,-5.1,53,30.38,10.0,SW,5.8,-,N/A,,Overcast,230,2013-01-23 04:53:00